User: anonymous   Login
Location: Dumpton Point
(51.3500°N, 1.4433°E)
Time: 10:14:11
(UTC+00:00)
Language:

Transit 4A - Orbit

View from above orbital plane
View from above orbital plane
View from above satellite
View from above satellite

Ground track
Ground track

The orbit data is extracted from the following two-line orbital elements,

1 00116U 61015A   22269.38442521  .00000004  00000-0  62276-4 0  9992
2 00116  66.8117 336.8111 0072436 151.2588 209.2513 13.91846559107432
Epoch (UTC): 26 September 2022 09:13:34
Eccentricity: 0.0072436
inclination: 66.8117°
perigee height: 869 km
apogee height: 975 km
right ascension of ascending node: 336.8111°
argument of perigee: 151.2588°
revolutions per day: 13.91846559
mean anomaly at epoch: 209.2513°
orbit number at epoch: 10743

The dashed part of the orbit path shows where the satellite is in the earth's shadow,  

DLR